KK4Q Weather Reports


time (UTC)temp
F
wind
direction
speed
knots
gust
knots
rain 1hr
in
rain 24hr
in
rain mn
in
humidity
%
barometer
mb
20260505223031 73 288 1.7 7.0 0.00 0.00 0.00 58 1013.8
20260505221517 73 331 1.7 7.0 0.00 0.00 0.00 57 1013.9
20260505220024 73 326 0.9 5.2 0.00 0.00 0.00 59 1014.0
20260505214528 73 287 0.9 6.1 0.00 0.00 0.00 58 1014.0
20260505213014 71 96 1.7 7.8 0.00 0.00 0.00 60 1014.2
20260505211522 71 174 0.9 5.2 0.00 0.00 0.00 63 1014.3
20260505210026 70 104 1.7 8.7 0.00 0.00 0.00 61 1014.5
20260505204515 70 324 2.6 7.0 0.00 0.00 0.00 60 1014.6
20260505203022 70 317 2.6 7.8 0.00 0.00 0.00 61 1014.6
20260505201529 70 332 2.6 5.2 0.00 0.00 0.00 62 1014.8
20260505200015 70 306 0.9 3.5 0.00 0.00 0.00 64 1014.7
20260505194522 68 329 2.6 5.2 0.00 0.00 0.00 62 1014.8
20260505193029 68 246 1.7 3.5 0.00 0.00 0.00 61 1014.8
20260505191513 67 90 0.9 2.6 0.00 0.00 0.00 65 1015.0
20260505190017 65 350 0.9 3.5 0.00 0.00 0.00 66 1015.1
20260505184521 65 259 1.7 6.1 0.00 0.00 0.00 65 1015.2
20260505183028 63 285 0.9 3.5 0.00 0.00 0.00 70 1015.2
20260505181531 64 105 0.0 1.7 0.00 0.00 0.00 71 1015.2
20260505180016 62 252 0.9 2.6 0.00 0.00 0.00 71 1015.3
20260505174523 60 274 0.0 2.6 0.00 0.00 0.00 74 1015.3
20260505173052 60 302 0.0 3.5 0.00 0.00 0.00 76 1015.3
20260505171520 59 317 1.7 3.5 0.00 0.00 0.00 75 1015.3
20260505170046 59 280 0.0 1.7 0.00 0.00 0.00 75 1015.2
20260505164514 59 291 0.9 1.7 0.00 0.00 0.00 76 1015.4
20260505163043 59 275 0.0 1.7 0.00 0.00 0.00 75 1015.3
20260505161529 58 216 0.0 1.7 0.00 0.00 0.00 78 1015.3
20260505153016 57 243 0.0 0.9 0.00 0.00 0.00 81 1015.4
20260505151543 56 109 0.0 0.0 0.00 0.00 0.00 84 1015.4
20260505124520 55 340 0.0 1.7 0.00 0.00 0.00 84 1014.7
20260505123027 55 29 0.0 1.7 0.00 0.00 0.00 84 1014.4
20260505121519 55 10 0.0 1.7 0.00 0.00 0.00 84 1014.4
20260505120018 55 55 0.0 0.9 0.00 0.00 0.00 83 1014.3
20260505114526 55 20 0.9 2.6 0.00 0.00 0.00 83 1014.2
20260505113031 56 328 0.0 3.5 0.00 0.00 0.00 83 1014.2
20260505111520 56 288 0.0 3.5 0.00 0.00 0.00 83 1014.1
20260505101514 56 341 0.0 0.9 0.00 0.00 0.00 82 1013.9
20260505100022 56 327 0.9 2.6 0.00 0.00 0.00 81 1013.9
20260505094530 56 325 0.9 2.6 0.00 0.00 0.00 82 1013.9
20260505093019 56 333 0.0 1.7 0.00 0.00 0.00 82 1014.1
20260505091527 56 346 0.9 2.6 0.00 0.00 0.00 81 1014.0
20260505090032 56 340 0.9 2.6 0.00 0.00 0.00 81 1014.0
20260505084520 56 320 0.0 0.9 0.00 0.00 0.00 81 1014.1
20260505083050 56 309 0.0 1.7 0.00 0.00 0.00 82 1014.2
20260505081515 57 328 0.9 2.6 0.00 0.00 0.00 81 1014.2
20260505080022 57 11 0.0 1.7 0.00 0.00 0.00 81 1014.4
20260505074528 57 300 0.0 1.7 0.00 0.00 0.00 81 1014.4
20260505073017 57 331 0.9 2.6 0.00 0.00 0.00 81 1014.3
20260505071542 57 275 0.0 0.9 0.00 0.00 0.00 81 1014.3
20260505070046 57 290 0.9 1.7 0.00 0.00 0.00 81 1014.3
20260505064530 57 320 0.9 2.6 0.00 0.00 0.00 80 1014.3
20260505063020 57 18 0.9 3.5 0.00 0.00 0.00 81 1014.3
20260505061517 57 278 0.9 2.6 0.00 0.00 0.00 80 1014.1
20260505060013 58 310 0.9 2.6 0.00 0.00 0.00 80 1014.0
20260505054518 58 355 0.9 3.5 0.00 0.00 0.00 80 1014.0
20260505053028 58 332 0.0 0.9 0.00 0.00 0.00 80 1014.0
20260505051514 58 321 0.0 0.9 0.00 0.00 0.00 79 1013.9
20260505041515 59 315 0.9 3.5 0.00 0.00 0.00 78 1013.3
20260505040025 59 334 0.0 1.7 0.00 0.00 0.00 78 1013.1
20260505034538 60 109 0.0 1.7 0.00 0.00 0.00 77 1012.8
20260505033027 60 296 0.9 5.2 0.00 0.00 0.00 76 1012.6
20260505031557 61 317 0.0 5.2 0.00 0.00 0.00 75 1012.4
20260505030014 61 339 2.6 8.7 0.00 0.00 0.00 73 1012.1
20260505024516 63 288 1.7 9.6 0.00 0.00 0.00 72 1011.8
20260505023015 64 24 3.5 11.3 0.00 0.00 0.00 69 1011.6
20260505021523 65 360 2.6 8.7 0.00 0.00 0.00 69 1011.5
20260505020012 65 319 2.6 11.3 0.00 0.00 0.00 67 1011.4
20260505014542 67 287 2.6 7.0 0.00 0.00 0.00 65 1011.2
20260505013017 68 281 2.6 9.6 0.00 0.00 0.00 62 1011.2
20260505011536 69 327 1.7 6.1 0.00 0.00 0.00 62 1011.2
20260505010023 70 39 3.5 10.4 0.00 0.00 0.00 61 1011.1
20260505004512 71 89 2.6 7.8 0.00 0.00 0.00 60 1011.0
20260505003034 70 298 0.0 9.6 0.00 0.00 0.00 64 1010.9
20260505001538 71 111 0.9 3.5 0.00 0.00 0.00 62 1011.0
20260505000024 71 286 1.7 4.3 0.00 0.00 0.00 61 1011.0
20260504234532 72 331 1.7 5.2 0.00 0.00 0.00 60 1011.1
20260504233021 71 116 1.7 7.8 0.00 0.00 0.00 65 1011.2
20260504231530 71 259 4.3 9.6 0.00 0.00 0.00 62 1011.3
20260504230015 71 277 0.9 8.7 0.00 0.00 0.00 63 1011.4